[[{"header":{"parameterUnit":"m.s-1","parameterCategory":1,"la1":30.2991,"la2":30.254,"lo1":-89.0895,"lo2":-89.0444,"dy":0.0017,"dx":0.0017,"nx":28,"ny":28,"refTime":"2025-06-10T21:00:00:Z","depth":0,"parameterNumber":2,"parameterNumberName":"U-component_of_WINDS"},"data":[0,0,0,0,0,0,0,0,0,0,0,0,0,0,0,0,0,0,0,0,0,0,0,0,0,0,0,0,0,0,0,0,0,0,0,0,0,0,0,0,0,0,0,0,0,0,0,0,0,0,0,0,0,0,0,0,0,0,0.3437,0.344,0,0.3713,0.3716,0.3719,0.385,0.385,0.385,0.385,0.4138,0.4145,0.4153,0,0,0,0,0,0,0,0,0,0,0,0,0,0.3029,0.3036,0.3437,0.344,0.3444,0.3712,0.3716,0.372,0.385,0.385,0.385,0.385,0.4135,0.4144,0.4153,0,0,0,0,0,0,0,0,0,0,0,0,0,0.3246,0.3038,0.3436,0.3541,0.3553,0.3711,0.3716,0.3721,0.385,0.385,0.385,0.385,0.4132,0.4143,0.4155,0.4231,0,0,0.419,0.4195,0,0,0,0,0,0,0,0,0.3233,0.3261,0.3522,0.3534,0.3548,0.3747,0.3678,0.3892,0.3851,0.3738,0.385,0.385,0.4008,0.403,0.4082,0.4244,0.4257,0.4191,0.4199,0.4204,0.4207,0,0,0,0,0,0,0,0.3218,0.3249,0.3546,0.3526,0.3542,0.3576,0.3607,0.3719,0.3871,0.3748,0.3758,0.3788,0.4015,0.4071,0.409,0.4261,0.4191,0.4201,0.4209,0.4213,0.45,0.4501,0,0,0,0,0,0,0.3185,0.3236,0.3538,0.3555,0.3387,0.3584,0.3618,0.3683,0.387,0.3898,0.3788,0.3793,0.4051,0.4076,0.41,0.4203,0.4203,0.4214,0.4221,0.4499,0.45,0.4501,0,0,0,0,0,0,0.3176,0.3211,0.3526,0.3398,0.3441,0.3591,0.3663,0.3689,0.3745,0.3901,0.3929,0.3817,0.4052,0.4084,0.4197,0.4214,0.422,0.423,0.4499,0.45,0.45,0.4406,0,0,0,0,0,0,0.3164,0.3207,0.3236,0.3398,0.3447,0.3617,0.3665,0.3694,0.3764,0.3773,0.3935,0.3961,0.4054,0.4179,0.4209,0.4231,0.4239,0.4498,0.4499,0.45,0.4408,0.4404,0.44,0,0,0,0,0,0.3149,0.32,0.3237,0.3273,0.3487,0.3617,0.3646,0.375,0.3764,0.3796,0.3896,0.3956,0.4207,0.4189,0.4224,0.425,0.4497,0.4499,0.45,0.441,0.4405,0.44,0,0,0,0,0,0,0.3038,0.3223,0.3266,0.337,0.3477,0.3639,0.3682,0.374,0.3846,0.3851,0.3977,0.4012,0.4114,0.4194,0.417,0.4333,0.4358,0.4366,0.4278,0.4274,0.4269,0.4249,0.4249,0,0,0,0,0,0.3025,0.3114,0.3272,0.3349,0.3399,0.3531,0.3592,0.3662,0.3779,0.3825,0.3934,0.4046,0.415,0.4216,0.4321,0.442,0.4458,0.4455,0.445,0.4446,0.4452,0.4511,0.4512,0.4505,0.4505,0.4505,0,0,0.3001,0.3113,0.3162,0.3329,0.342,0.3511,0.3568,0.3662,0.3732,0.384,0.3953,0.4036,0.417,0.4276,0.4329,0.4346,0.4462,0.4448,0.4443,0.4452,0.4513,0.4513,0.4514,0.4506,0.4506,0.4506,0,0,0.3003,0.3095,0.317,0.3259,0.3396,0.3483,0.35,0.3654,0.3713,0.3828,0.3911,0.3996,0.4173,0.4265,0.4334,0.437,0.443,0.44,0.4378,0.4435,0.4435,0.4436,0.445,0.4453,0.4406,0.4406,0.4406,0,0.2956,0.3094,0.3202,0.3291,0.3362,0.3462,0.354,0.3622,0.3786,0.3834,0.3849,0.4073,0.417,0.43,0.4308,0.4361,0.4386,0.4383,0.4426,0.4428,0.4431,0.4446,0.445,0.4401,0.4402,0.4402,0.4403,0,0.303,0.3125,0.3169,0.3323,0.34,0.3482,0.3603,0.3668,0.3732,0.3817,0.3934,0.4053,0.4184,0.422,0.4283,0.4359,0.4365,0.4401,0.4429,0.4425,0.4441,0.4448,0.4395,0.4397,0.4398,0.4399,0,0,0.2972,0.3182,0.3197,0.3268,0.3425,0.3501,0.3589,0.3715,0.3769,0.3878,0.3956,0.4102,0.4137,0.4216,0.4291,0.434,0.4362,0.4371,0.4376,0.4366,0.4453,0.4425,0.443,0.4401,0.4403,0.4404,0.4442,0,0.2996,0.3156,0.3255,0.3375,0.3465,0.3561,0.3638,0.3743,0.3825,0.3915,0.4007,0.4109,0.4146,0.4195,0.4247,0.4347,0.4381,0.4346,0.4477,0.448,0.4441,0.4438,0.441,0.444,0.4449,0.445,0.4451,0,0.3047,0.3152,0.328,0.3427,0.3469,0.3536,0.3659,0.3743,0.3865,0.3921,0.4008,0.4084,0.4182,0.4199,0.4337,0.4311,0.4371,0.4428,0.4431,0.4449,0.4466,0.4457,0.4452,0.4457,0.4462,0.4461,0.446,0,0.2991,0.3165,0.3265,0.3323,0.3497,0.3542,0.3617,0.3738,0.3807,0.3916,0.3963,0.4081,0.4146,0.4237,0.4343,0.4346,0.447,0.4497,0.4522,0.4519,0.4545,0.4542,0.4551,0.458,0.458,0.458,0.458,0,0.3009,0.3085,0.3243,0.3304,0.3392,0.3505,0.359,0.3673,0.378,0.386,0.3951,0.4025,0.416,0.4251,0.4334,0.4436,0.4465,0.4514,0.4536,0.4507,0.4501,0.4549,0.455,0.4582,0.4581,0.4581,0.4581,0,0.2964,0.3072,0.3188,0.3342,0.3383,0.344,0.3574,0.3638,0.3724,0.3825,0.3856,0.3992,0.4104,0.4218,0.4369,0.4426,0.4525,0.4554,0.4484,0.4496,0.4515,0.4511,0.4556,0.4568,0.4586,0.4586,0.4586,0,0.2968,0.3028,0.3189,0.3248,0.332,0.3415,0.3486,0.36,0.367,0.3813,0.386,0.3978,0.4079,0.4253,0.4367,0.4484,0.4517,0.4524,0.4536,0.4505,0.4519,0.4514,0.4522,0.4521,0.452,0.4519,0.4519,0,0.2965,0.3016,0.3114,0.323,0.3311,0.3409,0.351,0.3554,0.3688,0.3763,0.3877,0.3955,0.4109,0.4226,0.4355,0.4435,0.45,0.4514,0.4526,0.4498,0.4455,0.448,0.4473,0.4513,0.4513,0.4514,0.4514,0.4514,0.2947,0.3004,0.3126,0.3232,0.332,0.3412,0.348,0.3574,0.367,0.3803,0.3865,0.398,0.4102,0.4282,0.436,0.4453,0.4471,0.4488,0.4493,0.4496,0.4489,0.4438,0.4477,0.4477,0.4478,0.4478,0.4478,0,0.2949,0.3032,0.3128,0.3266,0.3349,0.34,0.3515,0.3582,0.3681,0.3788,0.3885,0.4017,0.413,0.4252,0.4373,0.4424,0.4457,0.4452,0.445,0.4468,0.4466,0.4444,0.4424,0.4424,0.4424,0.4424,0.4424,0.4424,0.296,0.3061,0.3126,0.3272,0.3355,0.3467,0.3528,0.3614,0.37,0.3843,0.3937,0.4015,0.4128,0.4258,0.4365,0.4398,0.4439,0.4426,0.4468,0.4464,0.4468,0.4472,0.4452,0.4434,0.4434,0.4463,0.4463,0.4463]},{"header":{"parameterUnit":"m.s-1","parameterCategory":1,"la1":30.2991,"la2":30.254,"lo1":-89.0895,"lo2":-89.0444,"dy":0.0017,"dx":0.0017,"nx":28,"ny":28,"refTime":"2025-06-10T21:00:00:Z","depth":0,"parameterNumber":3,"parameterNumberName":"V-component_of_WINDS"},"data":[0,0,0,0,0,0,0,0,0,0,0,0,0,0,0,0,0,0,0,0,0,0,0,0,0,0,0,0,0,0,0,0,0,0,0,0,0,0,0,0,0,0,0,0,0,0,0,0,0,0,0,0,0,0,0,0,0,0,4.2096,4.2096,0,4.2101,4.2101,4.2101,4.204,4.2038,4.2037,4.2035,4.2039,4.2041,4.2042,0,0,0,0,0,0,0,0,0,0,0,0,0,4.203,4.2032,4.2096,4.2096,4.2096,4.2101,4.2101,4.2101,4.204,4.2038,4.2036,4.2034,4.2038,4.204,4.2042,0,0,0,0,0,0,0,0,0,0,0,0,0,4.205,4.2032,4.2096,4.2066,4.2064,4.2101,4.2101,4.2101,4.2041,4.2038,4.2036,4.2033,4.2038,4.204,4.2043,4.2108,0,0,4.205,4.2051,0,0,0,0,0,0,0,0,4.2049,4.2052,4.207,4.2068,4.2065,4.2067,4.208,4.2104,4.2041,4.2049,4.2035,4.2032,4.205,4.2052,4.2058,4.2108,4.2109,4.205,4.2052,4.2053,4.2054,0,0,0,0,0,0,0,4.2047,4.2051,4.2098,4.2071,4.2068,4.2052,4.2052,4.2084,4.2064,4.2049,4.2044,4.2046,4.2048,4.2056,4.2058,4.2109,4.205,4.2053,4.2054,4.2055,4.2214,4.2216,0,0,0,0,0,0,4.205,4.2051,4.2098,4.2098,4.2051,4.2055,4.2055,4.2069,4.2063,4.206,4.2048,4.2043,4.2053,4.2055,4.2058,4.2135,4.2053,4.2055,4.2057,4.2211,4.2214,4.2217,0,0,0,0,0,0,4.2049,4.2055,4.2097,4.2073,4.2077,4.2059,4.2075,4.2071,4.2078,4.2063,4.2059,4.2059,4.2051,4.2054,4.2096,4.2134,4.2057,4.2059,4.2208,4.2212,4.2216,4.229,0,0,0,0,0,0,4.2048,4.2055,4.208,4.2074,4.2079,4.2137,4.2078,4.2073,4.2083,4.2076,4.2072,4.2069,4.2049,4.2093,4.2099,4.2136,4.2061,4.2204,4.221,4.2215,4.2284,4.2296,4.2306,0,0,0,0,0,4.2045,4.21,4.2082,4.2088,4.211,4.2139,4.2142,4.2118,4.2086,4.2111,4.2101,4.207,4.2129,4.2098,4.2104,4.2143,4.2202,4.2208,4.2214,4.2279,4.2293,4.2306,0,0,0,0,0,0,4.211,4.2099,4.2078,4.2133,4.2138,4.2129,4.216,4.2134,4.2147,4.2141,4.211,4.211,4.2157,4.2154,4.2119,4.2206,4.216,4.2167,4.2207,4.222,4.2231,4.2232,4.2063,0,0,0,0,0,4.2131,4.2156,4.2144,4.2194,4.2197,4.2178,4.219,4.2171,4.2175,4.2176,4.2169,4.2173,4.2193,4.2206,4.2223,4.2283,4.2281,4.2312,4.2323,4.2332,4.234,4.2371,4.2385,4.2237,4.2237,4.2237,0,0,4.2174,4.2171,4.2188,4.2207,4.2208,4.2235,4.218,4.221,4.2229,4.218,4.222,4.2216,4.2218,4.2269,4.2291,4.2268,4.238,4.234,4.2348,4.235,4.2379,4.2393,4.2406,4.2241,4.2241,4.224,0,0,4.2266,4.2266,4.2307,4.231,4.2313,4.23,4.231,4.2306,4.2301,4.2341,4.2305,4.2326,4.2361,4.2364,4.237,4.2464,4.2436,4.247,4.2529,4.256,4.2572,4.2582,4.2616,4.2629,4.2477,4.2477,4.2478,0,4.2319,4.2358,4.2332,4.2365,4.2374,4.2331,4.2373,4.2377,4.2385,4.2392,4.2365,4.2408,4.2406,4.2459,4.2482,4.2488,4.2498,4.2471,4.2572,4.2582,4.2591,4.2624,4.2637,4.2482,4.2481,4.2481,4.248,0,4.2423,4.2451,4.2483,4.2494,4.2507,4.2544,4.2523,4.2539,4.2519,4.2509,4.255,4.2547,4.2563,4.2573,4.2554,4.2623,4.2608,4.2578,4.2531,4.261,4.264,4.2652,4.2488,4.2486,4.2485,4.2484,0,0,4.2556,4.2552,4.2565,4.2569,4.257,4.259,4.2625,4.2642,4.2657,4.2663,4.2692,4.2722,4.2694,4.2701,4.2682,4.2709,4.2785,4.2675,4.2674,4.2696,4.2862,4.2886,4.2901,4.2766,4.2768,4.277,4.2862,0,4.2647,4.2707,4.2685,4.2747,4.2773,4.2733,4.2763,4.2767,4.2758,4.2778,4.2767,4.279,4.275,4.2755,4.278,4.277,4.2818,4.2763,4.2792,4.2794,4.2794,4.2916,4.2942,4.3029,4.2873,4.2875,4.2877,0,4.276,4.2773,4.2839,4.2835,4.2845,4.2873,4.2887,4.2906,4.2909,4.2901,4.2909,4.2884,4.2918,4.287,4.2917,4.288,4.289,4.2888,4.289,4.2893,4.2841,4.2923,4.3056,4.307,4.2895,4.2893,4.2892,0,4.2853,4.2886,4.293,4.2934,4.2931,4.2952,4.2952,4.2952,4.2964,4.2975,4.2983,4.2998,4.3006,4.3018,4.2998,4.2965,4.3047,4.2998,4.3042,4.3042,4.3062,4.3061,4.3199,4.3067,4.3067,4.3066,4.3066,0,4.2957,4.2998,4.2971,4.2998,4.3043,4.3017,4.3062,4.3057,4.3058,4.3083,4.3049,4.3073,4.3043,4.3064,4.3048,4.309,4.3093,4.3088,4.3083,4.3092,4.3093,4.3099,4.3093,4.307,4.3069,4.3068,4.3068,0,4.3068,4.3051,4.3096,4.309,4.3089,4.3123,4.3118,4.3142,4.3131,4.3163,4.3169,4.3151,4.3175,4.3155,4.3177,4.3166,4.3221,4.3207,4.3221,4.3218,4.3263,4.326,4.3411,4.343,4.3284,4.3286,4.3287,0,4.3136,4.3167,4.3165,4.3179,4.3182,4.3205,4.3217,4.3192,4.3206,4.3212,4.3236,4.3256,4.3271,4.331,4.3299,4.3316,4.3303,4.3355,4.3305,4.3313,4.3305,4.3304,4.3307,4.3365,4.3367,4.3368,4.3369,0,4.3259,4.3249,4.3268,4.3285,4.33,4.3312,4.332,4.3334,4.3309,4.3326,4.3349,4.3361,4.3384,4.3405,4.3418,4.3417,4.339,4.3385,4.3396,4.3406,4.3413,4.3411,4.325,4.3382,4.3381,4.338,4.3379,4.3379,4.3351,4.3377,4.338,4.3403,4.3407,4.3416,4.3439,4.3431,4.3451,4.3468,4.3452,4.3481,4.3483,4.3498,4.35,4.3522,4.3501,4.3517,4.3521,4.3526,4.3533,4.3409,4.3525,4.3524,4.3524,4.3523,4.3523,0,4.3473,4.3473,4.3494,4.3508,4.3526,4.3499,4.3507,4.3524,4.355,4.3554,4.357,4.3598,4.3618,4.3609,4.3626,4.3646,4.3634,4.3651,4.365,4.3651,4.3551,4.354,4.3661,4.3661,4.3661,4.3661,4.3661,4.3661,4.3539,4.3583,4.3574,4.3619,4.3618,4.3647,4.3654,4.3663,4.3666,4.3699,4.3716,4.371,4.3709,4.3726,4.3744,4.374,4.3749,4.3772,4.3764,4.3671,4.3658,4.3645,4.3634,4.3774,4.3774,4.3862,4.3863,4.3864]}]]